Time,TemperatureF,DewpointF,PressureIn,WindDirection,WindDirectionDegrees,WindSpeedMPH,WindSpeedGustMPH,Humidity,HourlyPrecipIn,Conditions,Clouds,dailyrainin,SoftwareType,DateUTC
2013-07-19 00:01:00,81.7,61.2,29.32,NNW,332,0.0,0.0,50,0.00,,,0.00,VWS V14.01,2013-07-19 04:01:00,
2013-07-19 00:02:00,81.5,61.1,29.32,NNW,331,0.0,0.0,50,0.00,,,0.00,VWS V14.01,2013-07-19 04:02:00,
2013-07-19 00:07:00,81.5,61.7,29.32,NNW,340,0.0,0.0,51,0.00,,,0.00,VWS V14.01,2013-07-19 04:07:00,
2013-07-19 00:12:00,81.3,61.5,29.32,WNW,291,0.0,0.0,51,0.00,,,0.00,VWS V14.01,2013-07-19 04:12:00,
2013-07-19 00:17:00,81.3,61.5,29.32,West,267,0.0,0.0,51,0.00,,,0.00,VWS V14.01,2013-07-19 04:17:00,
2013-07-19 00:22:00,81.1,61.3,29.32,West,270,0.0,0.0,51,0.00,,,0.00,VWS V14.01,2013-07-19 04:22:00,
2013-07-19 00:27:00,81.1,61.3,29.32,West,270,0.0,0.0,51,0.00,,,0.00,VWS V14.01,2013-07-19 04:27:00,
2013-07-19 00:32:00,81.1,61.3,29.32,West,270,0.0,0.0,51,0.00,,,0.00,VWS V14.01,2013-07-19 04:32:00,
2013-07-19 00:37:00,81.1,61.3,29.32,West,270,0.0,0.0,51,0.00,,,0.00,VWS V14.01,2013-07-19 04:37:00,
2013-07-19 00:42:00,81.0,61.2,29.32,WNW,300,0.0,0.0,51,0.00,,,0.00,VWS V14.01,2013-07-19 04:42:00,
2013-07-19 00:47:00,81.0,61.2,29.32,NNW,332,0.0,0.0,51,0.00,,,0.00,VWS V14.01,2013-07-19 04:47:00,
2013-07-19 00:52:00,81.0,61.7,29.32,NNW,332,0.0,0.0,52,0.00,,,0.00,VWS V14.01,2013-07-19 04:52:00,
2013-07-19 00:57:00,80.8,61.0,29.32,NNW,332,0.0,0.0,51,0.00,,,0.00,VWS V14.01,2013-07-19 04:57:00,
2013-07-19 01:02:00,80.6,60.8,29.32,NNW,332,0.0,0.0,51,0.00,,,0.00,VWS V14.01,2013-07-19 05:02:00,
2013-07-19 01:07:00,80.6,60.8,29.32,NNW,332,0.0,0.0,51,0.00,,,0.00,VWS V14.01,2013-07-19 05:07:00,
2013-07-19 01:12:00,80.2,61.0,29.32,NNW,332,0.0,0.0,52,0.00,,,0.00,VWS V14.01,2013-07-19 05:12:00,
2013-07-19 01:17:00,80.2,61.0,29.32,NNW,332,0.0,0.0,52,0.00,,,0.00,VWS V14.01,2013-07-19 05:17:00,
2013-07-19 01:22:00,80.2,61.0,29.32,NNW,332,0.0,0.0,52,0.00,,,0.00,VWS V14.01,2013-07-19 05:22:00,
2013-07-19 01:27:00,80.1,60.9,29.32,NNW,332,0.0,0.0,52,0.00,,,0.00,VWS V14.01,2013-07-19 05:27:00,
2013-07-19 01:32:00,80.1,61.4,29.32,NNW,332,0.0,0.0,53,0.00,,,0.00,VWS V14.01,2013-07-19 05:32:00,
2013-07-19 01:37:00,80.1,61.4,29.32,NNW,332,0.0,0.0,53,0.00,,,0.00,VWS V14.01,2013-07-19 05:37:00,
2013-07-19 01:42:00,79.9,61.2,29.32,NNW,332,0.0,0.0,53,0.00,,,0.00,VWS V14.01,2013-07-19 05:42:00,
2013-07-19 01:47:00,79.9,61.2,29.32,NNE,22,0.0,0.0,53,0.00,,,0.00,VWS V14.01,2013-07-19 05:47:00,
2013-07-19 01:52:00,79.9,61.8,29.32,NNE,12,0.0,0.0,54,0.00,,,0.00,VWS V14.01,2013-07-19 05:52:00,
2013-07-19 01:57:00,79.9,61.8,29.32,NNE,12,0.0,0.0,54,0.00,,,0.00,VWS V14.01,2013-07-19 05:57:00,
2013-07-19 02:02:00,79.9,61.8,29.32,NW,318,0.0,3.6,54,0.00,,,0.00,VWS V14.01,2013-07-19 06:02:00,
2013-07-19 02:07:00,79.9,62.3,29.32,NNW,329,0.0,0.0,55,0.00,,,0.00,VWS V14.01,2013-07-19 06:07:00,
2013-07-19 02:12:00,79.9,62.3,29.32,NNE,19,0.0,2.2,55,0.00,,,0.00,VWS V14.01,2013-07-19 06:12:00,
2013-07-19 02:17:00,79.7,62.1,29.32,NNW,341,0.0,0.0,55,0.00,,,0.00,VWS V14.01,2013-07-19 06:17:00,
2013-07-19 02:22:00,79.7,62.1,29.32,North,0,0.0,0.0,55,0.00,,,0.00,VWS V14.01,2013-07-19 06:22:00,
2013-07-19 02:27:00,79.7,62.1,29.32,NNW,341,0.0,0.0,55,0.00,,,0.00,VWS V14.01,2013-07-19 06:27:00,
2013-07-19 02:32:00,79.5,62.0,29.32,North,353,0.0,0.0,55,0.00,,,0.00,VWS V14.01,2013-07-19 06:32:00,
2013-07-19 02:37:00,79.5,62.0,29.32,WSW,241,0.0,0.0,55,0.00,,,0.00,VWS V14.01,2013-07-19 06:37:00,
2013-07-19 02:42:00,79.5,62.0,29.32,North,353,0.0,0.0,55,0.00,,,0.00,VWS V14.01,2013-07-19 06:42:00,
2013-07-19 02:47:00,79.3,61.8,29.32,North,0,0.0,0.0,55,0.00,,,0.00,VWS V14.01,2013-07-19 06:47:00,
2013-07-19 02:52:00,79.3,61.3,29.32,North,0,0.0,0.0,54,0.00,,,0.00,VWS V14.01,2013-07-19 06:52:00,
2013-07-19 02:57:00,79.2,61.1,29.32,NNW,345,0.0,0.0,54,0.00,,,0.00,VWS V14.01,2013-07-19 06:57:00,
2013-07-19 03:02:00,79.0,60.9,29.32,NNW,345,0.0,0.0,54,0.00,,,0.00,VWS V14.01,2013-07-19 07:02:00,
2013-07-19 03:07:00,79.0,60.9,29.32,NNW,345,0.0,0.0,54,0.00,,,0.00,VWS V14.01,2013-07-19 07:07:00,
2013-07-19 03:12:00,79.0,60.9,29.32,NNW,345,0.0,0.0,54,0.00,,,0.00,VWS V14.01,2013-07-19 07:12:00,
2013-07-19 03:17:00,79.0,60.9,29.32,NNW,345,0.0,0.0,54,0.00,,,0.00,VWS V14.01,2013-07-19 07:17:00,
2013-07-19 03:22:00,78.8,60.8,29.29,NNE,31,0.0,0.0,54,0.00,,,0.00,VWS V14.01,2013-07-19 07:22:00,
2013-07-19 03:27:00,78.8,60.8,29.29,NNW,327,0.0,0.0,54,0.00,,,0.00,VWS V14.01,2013-07-19 07:27:00,
2013-07-19 03:32:00,78.6,60.6,29.29,NNW,336,0.0,0.0,54,0.00,,,0.00,VWS V14.01,2013-07-19 07:32:00,
2013-07-19 03:37:00,78.6,60.6,29.29,ENE,62,0.0,0.0,54,0.00,,,0.00,VWS V14.01,2013-07-19 07:37:00,
2013-07-19 03:42:00,78.6,60.6,29.29,NNW,341,0.0,0.0,54,0.00,,,0.00,VWS V14.01,2013-07-19 07:42:00,
2013-07-19 03:47:00,78.6,61.1,29.29,NNW,331,0.0,2.2,55,0.00,,,0.00,VWS V14.01,2013-07-19 07:47:00,
2013-07-19 03:52:00,78.6,61.1,29.29,NNW,332,0.0,0.0,55,0.00,,,0.00,VWS V14.01,2013-07-19 07:52:00,
2013-07-19 03:57:00,78.6,61.1,29.29,NNW,332,0.0,0.0,55,0.00,,,0.00,VWS V14.01,2013-07-19 07:57:00,
2013-07-19 04:02:00,78.4,61.0,29.29,NNW,332,0.0,0.0,55,0.00,,,0.00,VWS V14.01,2013-07-19 08:02:00,
2013-07-19 04:07:00,78.3,60.8,29.32,NNW,332,0.0,0.0,55,0.00,,,0.00,VWS V14.01,2013-07-19 08:07:00,
2013-07-19 04:12:00,78.3,60.8,29.32,NNW,332,0.0,0.0,55,0.00,,,0.00,VWS V14.01,2013-07-19 08:12:00,
2013-07-19 04:17:00,78.3,60.8,29.32,NNW,332,0.0,0.0,55,0.00,,,0.00,VWS V14.01,2013-07-19 08:17:00,
2013-07-19 04:22:00,78.3,60.8,29.32,NNW,332,0.0,0.0,55,0.00,,,0.00,VWS V14.01,2013-07-19 08:22:00,
2013-07-19 04:27:00,78.1,60.6,29.32,NNW,332,0.0,0.0,55,0.00,,,0.00,VWS V14.01,2013-07-19 08:27:00,
2013-07-19 04:32:00,78.1,60.6,29.32,NNW,332,0.0,0.0,55,0.00,,,0.00,VWS V14.01,2013-07-19 08:32:00,
2013-07-19 04:37:00,78.1,60.6,29.32,NNW,332,0.0,0.0,55,0.00,,,0.00,VWS V14.01,2013-07-19 08:37:00,
2013-07-19 04:42:00,77.9,60.5,29.32,NNW,332,0.0,0.0,55,0.00,,,0.00,VWS V14.01,2013-07-19 08:42:00,
2013-07-19 04:47:00,77.9,60.5,29.32,NNW,332,0.0,0.0,55,0.00,,,0.00,VWS V14.01,2013-07-19 08:47:00,
2013-07-19 04:53:00,77.7,60.3,29.32,NNW,332,0.0,0.0,55,0.00,,,0.00,VWS V14.01,2013-07-19 08:53:00,
2013-07-19 04:58:00,77.7,60.3,29.32,NNW,332,0.0,0.0,55,0.00,,,0.00,VWS V14.01,2013-07-19 08:58:00,
2013-07-19 05:03:00,77.5,60.1,29.32,NNW,332,0.0,0.0,55,0.00,,,0.00,VWS V14.01,2013-07-19 09:03:00,
2013-07-19 05:08:00,77.5,60.1,29.32,NNW,332,0.0,0.0,55,0.00,,,0.00,VWS V14.01,2013-07-19 09:08:00,
2013-07-19 05:13:00,77.5,60.1,29.32,NNW,332,0.0,0.0,55,0.00,,,0.00,VWS V14.01,2013-07-19 09:13:00,
2013-07-19 05:18:00,77.5,60.1,29.32,NNW,332,0.0,0.0,55,0.00,,,0.00,VWS V14.01,2013-07-19 09:18:00,
2013-07-19 05:23:00,77.4,60.0,29.32,NNW,330,0.0,0.0,55,0.00,,,0.00,VWS V14.01,2013-07-19 09:23:00,
2013-07-19 05:28:00,77.4,60.5,29.32,NNW,328,0.0,0.0,56,0.00,,,0.00,VWS V14.01,2013-07-19 09:28:00,
2013-07-19 05:33:00,77.4,60.5,29.32,NNW,346,2.2,2.2,56,0.00,,,0.00,VWS V14.01,2013-07-19 09:33:00,
2013-07-19 05:38:00,77.4,61.0,29.32,NNW,346,0.0,0.0,57,0.00,,,0.00,VWS V14.01,2013-07-19 09:38:00,
2013-07-19 05:43:00,77.4,61.0,29.32,NNW,346,0.0,0.0,57,0.00,,,0.00,VWS V14.01,2013-07-19 09:43:00,
2013-07-19 05:48:00,77.4,61.0,29.32,NNW,346,0.0,0.0,57,0.00,,,0.00,VWS V14.01,2013-07-19 09:48:00,
2013-07-19 05:53:00,77.4,61.0,29.32,NNW,346,0.0,0.0,57,0.00,,,0.00,VWS V14.01,2013-07-19 09:53:00,
2013-07-19 05:58:00,77.2,60.8,29.32,NNW,346,0.0,0.0,57,0.00,,,0.00,VWS V14.01,2013-07-19 09:58:00,
2013-07-19 06:03:00,77.2,60.8,29.32,NNW,346,0.0,0.0,57,0.00,,,0.00,VWS V14.01,2013-07-19 10:03:00,
2013-07-19 06:08:00,77.2,60.8,29.32,NNW,346,0.0,0.0,57,0.00,,,0.00,VWS V14.01,2013-07-19 10:08:00,
2013-07-19 06:13:00,77.2,61.3,29.32,NNW,346,0.0,0.0,58,0.00,,,0.00,VWS V14.01,2013-07-19 10:13:00,
2013-07-19 06:18:00,77.2,61.3,29.32,NNW,346,0.0,0.0,58,0.00,,,0.00,VWS V14.01,2013-07-19 10:18:00,
2013-07-19 06:23:00,77.2,61.3,29.32,NNW,346,0.0,0.0,58,0.00,,,0.00,VWS V14.01,2013-07-19 10:23:00,
2013-07-19 06:28:00,77.2,61.3,29.32,NNW,346,0.0,0.0,58,0.00,,,0.00,VWS V14.01,2013-07-19 10:28:00,
2013-07-19 06:33:00,77.4,61.4,29.32,NNW,346,0.0,0.0,58,0.00,,,0.00,VWS V14.01,2013-07-19 10:33:00,
2013-07-19 06:38:00,77.4,61.4,29.32,NNW,346,0.0,0.0,58,0.00,,,0.00,VWS V14.01,2013-07-19 10:38:00,
2013-07-19 06:43:00,77.5,61.6,29.32,NNW,346,0.0,0.0,58,0.00,,,0.00,VWS V14.01,2013-07-19 10:43:00,
2013-07-19 06:48:00,77.7,62.3,29.32,North,349,0.0,0.0,59,0.00,,,0.00,VWS V14.01,2013-07-19 10:48:00,
2013-07-19 06:53:00,77.9,62.4,29.32,North,349,0.0,0.0,59,0.00,,,0.00,VWS V14.01,2013-07-19 10:53:00,
2013-07-19 06:58:00,78.1,62.6,29.32,North,7,0.0,0.0,59,0.00,,,0.00,VWS V14.01,2013-07-19 10:58:00,
2013-07-19 07:03:00,78.3,62.8,29.32,NNW,336,0.0,0.0,59,0.00,,,0.00,VWS V14.01,2013-07-19 11:03:00,
2013-07-19 07:08:00,78.4,62.9,29.32,West,262,0.0,0.0,59,0.00,,,0.00,VWS V14.01,2013-07-19 11:08:00,
2013-07-19 07:13:00,78.8,62.8,29.32,NW,316,0.0,0.0,58,0.00,,,0.00,VWS V14.01,2013-07-19 11:13:00,
2013-07-19 07:18:00,79.0,63.0,29.32,NNW,337,0.0,0.0,58,0.00,,,0.00,VWS V14.01,2013-07-19 11:18:00,
2013-07-19 07:23:00,79.2,63.1,29.32,West,277,0.0,0.0,58,0.00,,,0.00,VWS V14.01,2013-07-19 11:23:00,
2013-07-19 07:28:00,79.3,63.3,29.32,NNE,29,0.0,0.0,58,0.00,,,0.00,VWS V14.01,2013-07-19 11:28:00,
2013-07-19 07:33:00,79.7,63.1,29.32,NNW,343,0.0,0.0,57,0.00,,,0.00,VWS V14.01,2013-07-19 11:33:00,
2013-07-19 07:38:00,79.7,63.1,29.32,NE,51,0.0,0.0,57,0.00,,,0.00,VWS V14.01,2013-07-19 11:38:00,
2013-07-19 07:43:00,80.1,63.0,29.32,NNW,341,0.0,2.2,56,0.00,,,0.00,VWS V14.01,2013-07-19 11:43:00,
2013-07-19 07:48:00,80.2,63.1,29.32,NNW,329,0.0,0.0,56,0.00,,,0.00,VWS V14.01,2013-07-19 11:48:00,
2013-07-19 07:53:00,80.4,63.3,29.32,East,91,0.0,0.0,56,0.00,,,0.00,VWS V14.01,2013-07-19 11:53:00,
2013-07-19 07:58:00,80.6,63.0,29.32,NNW,334,3.1,3.1,55,0.00,,,0.00,VWS V14.01,2013-07-19 11:58:00,
2013-07-19 08:03:00,81.0,62.8,29.32,NW,320,0.0,0.0,54,0.00,,,0.00,VWS V14.01,2013-07-19 12:03:00,
2013-07-19 08:08:00,81.1,62.4,29.32,NNW,329,2.2,3.6,53,0.00,,,0.00,VWS V14.01,2013-07-19 12:08:00,
2013-07-19 08:13:00,81.3,62.6,29.32,NW,313,0.0,0.0,53,0.00,,,0.00,VWS V14.01,2013-07-19 12:13:00,
2013-07-19 08:18:00,81.7,62.4,29.32,NW,313,2.7,2.7,52,0.00,,,0.00,VWS V14.01,2013-07-19 12:18:00,